BMCB-13 Weather Reports


Display with metric or nautical units.
time (UTC)temp
F
wind
direction
speed
MPH
gust
MPH
rain 1hr
in
rain 24hr
in
rain mn
in
humidity
%
barometer
mb
20260505124046 53 17 4.0 8.0 0.00 0.46 0.00 94 1008.2
20260505123046 53 18 5.0 10.0 0.00 0.46 0.00 94 1008.3
20260505121045 54 11 5.0 11.0 0.00 0.46 0.00 94 1008.3
20260505120045 54 350 5.0 11.0 0.00 0.46 0.00 94 1008.2
20260505115044 54 72 4.0 9.0 0.00 0.46 0.00 94 1008.3
20260505114047 54 188 5.0 10.0 0.00 0.46 0.00 94 1008.3
20260505113045 54 20 5.0 11.0 0.00 0.46 0.00 95 1008.3
20260505112046 54 18 5.0 10.0 0.00 0.46 0.00 95 1008.3
20260505111048 54 20 6.0 11.0 0.00 0.46 0.00 95 1008.3
20260505101049 54 16 6.0 12.0 0.00 0.46 0.00 97 1008.5
20260505100044 54 14 5.0 12.0 0.00 0.46 0.00 97 1008.5
20260505095046 54 12 5.0 11.0 0.00 0.46 0.00 97 1008.5
20260505094048 55 16 5.0 11.0 0.00 0.46 0.00 96 1008.5
20260505093047 55 17 5.0 11.0 0.00 0.46 0.00 97 1008.6
20260505092045 55 12 5.0 12.0 0.00 0.46 0.00 96 1008.6
20260505091047 55 94 5.0 10.0 0.00 0.46 0.00 96 1008.6
20260505090045 56 305 5.0 9.0 0.00 0.46 0.00 95 1008.5
20260505085047 57 49 3.0 4.0 0.00 0.46 0.00 92 1008.5
20260505084046 58 42 3.0 5.0 0.00 0.46 0.00 89 1008.4
20260505083046 59 23 2.0 6.0 0.00 0.46 0.00 89 1008.4
20260505082048 59 17 2.0 6.0 0.00 0.46 0.00 91 1008.3
20260505080050 58 23 2.0 5.0 0.00 0.46 0.00 92 1008.4
20260505075042 58 5 2.0 5.0 0.00 0.46 0.00 92 1008.5
20260505074044 58 33 2.0 5.0 0.00 0.46 0.00 94 1008.5
20260505073043 57 15 2.0 5.0 0.00 0.46 0.00 94 1008.5
20260505072044 57 30 2.0 4.0 0.00 0.46 0.00 94 1008.5
20260505071045 57 22 2.0 4.0 0.00 0.46 0.00 97 1008.5
20260505065046 55 15 1.0 3.0 0.00 0.46 0.00 99 1008.6
20260505064044 55 20 2.0 3.0 0.00 0.46 0.00 99 1008.7
20260505063043 55 30 1.0 3.0 0.00 0.46 0.00 99 1008.8
20260505062044 55 16 2.0 3.0 0.00 0.46 0.00 99 1008.8
20260505061046 55 9 2.0 3.0 0.00 0.46 0.00 10 1008.9
20260505060044 54 36 2.0 3.0 0.00 0.46 0.00 10 1008.9
20260505055047 54 54 1.0 3.0 0.00 0.46 0.00 10 1008.9
20260505054045 54 71 1.0 2.0 0.00 0.46 0.00 10 1008.9
20260505053046 54 24 0.0 0.0 0.00 0.46 0.00 10 1008.8
20260505052044 54 87 1.0 2.0 0.00 0.46 0.00 99 1008.8
20260505051047 54 134 0.0 1.0 0.00 0.46 0.00 99 1008.8
20260505041043 53 135 0.0 0.0 0.00 0.46 0.00 99 1008.9
20260505040045 54 279 0.0 0.0 0.00 0.46 0.00 99 1008.9
20260505035046 54 193 0.0 0.0 0.00 0.46 0.00 99 1008.9
20260505034045 53 172 0.0 0.0 0.00 0.46 0.00 98 1009.0
20260505033048 53 160 1.0 2.0 0.00 0.46 0.00 98 1009.0
20260505032044 54 251 1.0 2.0 0.00 0.46 0.00 98 1009.1
20260505031044 54 262 0.0 2.0 0.00 0.46 0.00 98 1009.1
20260505030045 54 183 0.0 2.0 0.00 0.46 0.00 98 1009.2
20260505025046 54 52 0.0 1.0 0.00 0.46 0.00 98 1009.2
20260505024048 54 121 2.0 4.0 0.00 0.46 0.00 98 1009.3
20260505022046 54 105 1.0 2.0 0.00 0.46 0.00 98 1009.4
20260505021046 54 87 1.0 3.0 0.00 0.46 0.00 99 1009.4
20260505020047 54 70 1.0 2.0 0.00 0.46 0.00 98 1009.4
20260505015046 54 81 1.0 2.0 0.00 0.46 0.00 98 1009.4
20260505014046 54 317 0.0 1.0 0.00 0.46 0.00 97 1009.5
20260505013044 54 5 1.0 1.0 0.00 0.46 0.00 97 1009.5
20260505012046 54 143 1.0 2.0 0.00 0.46 0.00 97 1009.5
20260505011044 54 218 1.0 3.0 0.00 0.46 0.00 96 1009.6
20260505010044 55 257 0.0 1.0 0.00 0.46 0.00 97 1009.7
20260505005047 55 93 0.0 0.0 0.00 0.46 0.00 97 1009.8
20260505003046 55 151 1.0 2.0 0.00 0.46 0.00 95 1009.9
20260505002044 55 173 0.0 2.0 0.00 0.46 0.00 95 1010.0
20260505001047 55 135 1.0 2.0 0.00 0.46 0.00 96 1010.1
20260505000047 55 196 1.0 4.0 0.00 0.46 0.00 95 1010.1
20260504235046 55 200 1.0 2.0 0.00 0.46 0.00 94 1010.1
20260504233048 55 345 1.0 2.0 0.00 0.46 0.00 95 1010.3
20260504231047 55 167 1.0 3.0 0.00 0.46 0.00 95 1010.4
20260504225050 55 174 2.0 3.0 0.00 0.46 0.00 94 1010.5
20260504224047 55 162 1.0 3.0 0.00 0.46 0.00 94 1010.7
20260504223045 55 175 1.0 3.0 0.00 0.46 0.00 95 1010.8
20260504221049 55 164 2.0 3.0 0.00 0.46 0.00 95 1010.9
20260504220046 55 162 2.0 3.0 0.00 0.46 0.00 94 1011.0
20260504215048 55 154 1.0 3.0 0.00 0.46 0.46 95 1011.1
20260504214050 55 150 2.0 3.0 0.00 0.46 0.46 95 1011.1
20260504212048 55 135 1.0 2.0 0.00 0.46 0.46 97 1011.2
20260504210047 56 158 1.0 4.0 0.00 0.46 0.46 95 1011.3
20260504204050 56 206 2.0 4.0 0.00 0.46 0.46 94 1011.4
20260504203045 56 165 1.0 3.0 0.00 0.46 0.46 95 1011.5
20260504201051 56 126 1.0 4.0 0.00 0.46 0.46 95 1011.5
20260504200053 56 208 2.0 4.0 0.00 0.46 0.46 94 1011.4
20260504195048 56 210 2.0 3.0 0.00 0.46 0.46 93 1011.4
20260504194049 56 207 2.0 3.0 0.00 0.46 0.46 93 1011.3
20260504193048 56 180 2.0 5.0 0.00 0.46 0.46 92 1011.3
20260504192049 57 173 3.0 6.0 0.00 0.46 0.46 92 1011.2
20260504191050 57 173 3.0 6.0 0.00 0.46 0.46 91 1011.2
20260504190049 57 178 4.0 8.0 0.00 0.46 0.46 90 1011.0
20260504185050 57 176 4.0 10.0 0.00 0.46 0.46 89 1011.0
20260504184049 57 176 4.0 10.0 0.00 0.46 0.46 91 1010.9
20260504183048 58 173 1.0 3.0 0.00 0.46 0.46 95 1010.9
20260504181051 58 202 1.0 2.0 0.00 0.46 0.46 95 1010.9
20260504180051 58 163 1.0 2.0 0.00 0.46 0.46 95 1011.0
20260504175049 58 151 1.0 2.0 0.00 0.46 0.46 94 1011.1
20260504174048 58 166 2.0 4.0 0.00 0.46 0.46 94 1011.1
20260504173052 57 166 2.0 4.0 0.01 0.46 0.46 93 1011.2
20260504172049 57 180 2.0 4.0 0.01 0.46 0.46 94 1011.2
20260504151046 59 202 1.0 3.0 0.28 0.28 0.28 94 1011.6
20260504141045 62 318 2.0 4.0 0.02 0.02 0.02 86 1011.7